www.pogodaiklimat.ru

Погода и климат >> Архив погоды >> Филиппины >> Пуэрто-Принцеса


ПОГОДА в Пуэрто-Принцесе

  • Прогноз погоды в Пуэрто-Принцесе
  • Монитор погоды в Пуэрто-Принцесе

АРХИВ ПОГОДЫ в Пуэрто-Принцесе

Время (UTC), дата Ветер
(напр.,м/с)
 
Видим.   Явления Облачность Т
(С)
Тd
(С)
f
(%)
Тe
(С)
Тes
(С)
Комфортность P
(гПа)
Po
(гПа)
Тmin
(С)
Tmax
(С)
R
(мм)
R24
(мм)
S
(см)
03 12.09 З 3 9000 м слаб. дождь {туман} 10/5 540 м
[Cu Sc Ac As]
+27.6 +25.0 86 +40 +42 очень
душно
1008.5 1006.8 4
06 12.09 ЮЗ 1 10 км слаб. ливневой дождь, в посл. час гроза 10/5 540 м
[Cu Sc Ac As]
+25.4 +23.8 91 +35 +38 очень
душно
1006.4 1004.7 26
09 12.09 З 2 8000 м слаб. ливневой дождь 10/5 570 м
[Sc Ac As]
+26.7 +24.8 89 +38 +38 очень
душно
1005.0 1003.3 2
12 12.09 С 3 8000 м гроза, ливневой дождь 10/6 500 м
[Cb cap As op]
+24.8 +23.4 92 +33 +33 очень
душно
1007.7 1006.0 +28.6 39
15 12.09 З 3 9000 м гроза, ливневой дождь 10/6 500 м
[Cb cap As op]
+24.4 +23.0 92 +32 +32 очень
душно
1008.0 1006.3 27
18 12.09 З 2 20 км {гроза, дождь} 10/4 570 м
[Cu med, cong Ac As]
+24.5 +23.4 94 +33 +33 очень
душно
1006.3 1004.6 30
21 12.09 З 1 20 км гроза без осадков 10/4 500 м
[Cb cap Ac As]
+24.4 +23.3 94 +33 +33 очень
душно
1005.4 1003.7
00 13.09 ЮЗ 2 25 км в посл. час дождь {гроза} 10/4 570 м
[Cu med, cong Ac As]
+25.3 +24.1 93 +35 +36 очень
душно
1007.5 1005.8 +24.0 95
03 13.09 СВ 2 15 км осадки на расстоянии {туман} 9/4 570 м
[Cu med, cong Ac As Ci fib]
+29.6 +24.0 72 +41 +48 опасность
перегрева
1007.4 1005.7
06 13.09 ЮЗ 3 10 км слаб. ливневой дождь {туман} 10/5 570 м
[Cu med, cong Ac As]
+26.8 +24.7 88 +38 +40 очень
душно
1006.0 1004.3 4
09 13.09 ЮЗ 2 8000 м слаб. дождь 10/5 570 м
[Cu med, cong Ac As]
+26.3 +24.0 87 +36 +37 очень
душно
1006.6 1004.9 3
12 13.09 Ю 1 15 км {дождь} 10/4 570 м
[Cu med, cong Ac As]
+25.3 +23.7 91 +34 +34 очень
душно
1008.1 1006.4 +30.0 4
15 13.09 СЗ 4 15 км в посл. час ливневой дождь 10/4 570 м
[Cu med, cong Ac As]
+25.1 +23.6 91 +34 +34 очень
душно
1008.9 1007.2 2
18 13.09 З 3 12 км слаб. ливневой дождь 10/4 570 м
[Cu med, cong Ac As]
+24.8 +23.4 92 +33 +33 очень
душно
1007.6 1005.9 2
21 13.09 Ю 2 12 км слаб. дождь 10/5 570 м
[Cu med, cong Ac As]
+24.6 +23.5 94 +33 +33 очень
душно
1008.1 1006.4 5
00 14.09 СЗ 2 25 км слаб. дождь 10/4 570 м
[Cu med, cong Ac As]
+24.6 +23.5 94 +33 +34 очень
душно
1010.1 1008.4 +24.4 23
03 14.09 Ю 1 28 км {дождь, туман} 10/3 570 м
[Cu med, cong Ac As]
+27.0 +24.1 84 +37 +42 очень
душно
1009.2 1007.5 0.0
06 14.09 ЮЗ 4 25 км {ливн. осадки, дождь} 10/4 570 м
[Cu med, cong Ac As]
+29.2 +24.9 78 +42 +44 опасность
перегрева
1008.1 1006.4 0.2
09 14.09 Ю 3 28 км в посл. час дождь 10/3 570 м
[Cu med, cong Ac As]
+26.2 +24.0 88 +36 +37 очень
душно
1008.1 1006.4 1
12 14.09 З 2 18 км слаб. ливневой дождь 10/4 570 м
[Cu med, cong Ac As]
+25.6 +23.2 87 +34 +34 очень
душно
1010.2 1008.5 +29.6 1
15 14.09 Ю 2 20 км 10/3 570 м
[Cu med, cong Ac As]
+25.4 +23.2 88 +34 +34 очень
душно
1010.8 1009.1
18 14.09 ЮЗ 2 20 км 9/3 570 м
[Cu med, cong Ac As]
+24.9 +23.1 90 +33 +33 очень
душно
1009.5 1007.8
21 14.09 З 2 20 км 9/3 570 м
[Cu med, cong Ac As Ci sp]
+24.7 +23.2 91 +33 +33 очень
душно
1009.3 1007.6
00 15.09 ЮЗ 2 20 км мгла {туман} 10/3 570 м
[Cu med, cong Ac trans Cs]
+26.8 +23.8 84 +37 +39 очень
душно
1010.9 1009.2 +24.5 2
03 15.09 ЮВ 2 20 км мгла {туман} 10/3 570 м
[Cu med, cong Cs]
+31.2 +23.9 65 +43 +54 опасность
перегрева
1010.5 1008.8
06 15.09 ЮЗ 4 20 км мгла {туман} 10/3 570 м
[Cu med, cong Cs]
+32.1 +23.7 61 +43 +50 опасность
перегрева
1007.9 1006.2
09 15.09 Ю 2 12 км мгла {туман} 10/3 570 м
[Cu med, cong Ac cuf Cs]
+30.6 +24.5 70 +43 +44 опасность
перегрева
1007.8 1006.1
12 15.09 З 2 15 км {туман} 10/3 570 м
[Cu med, cong Ac cuf Cs]
+28.8 +24.6 78 +41 +41 опасность
перегрева
1009.7 1008.0 +32.7
15 15.09 З 2 18 км 10/3 570 м
[Cu med, cong Ac cuf Cs]
+27.7 +24.9 85 +40 +40 очень
душно
1010.3 1008.6
18 15.09 З 1 18 км 10/3 570 м
[Cu med, cong Ac cuf Cs]
+26.6 +24.3 87 +37 +37 очень
душно
1009.1 1007.4
21 15.09 З 1 18 км 8/3 570 м
[Cu med, cong Ac cuf Cs]
+25.6 +23.4 88 +35 +35 очень
душно
1008.7 1007.0
00 16.09 ЮЗ 2 18 км мгла {туман} 10/3 570 м
[Cu med, cong Ac As Cs]
+27.1 +24.6 86 +38 +40 очень
душно
1010.2 1008.5 +25.0
03 16.09 Ю 2 18 км мгла {туман} 10/3 570 м
[Cu med, cong Ac und Cs]
+30.8 +23.0 63 +41 +48 опасность
перегрева
1009.6 1007.9
06 16.09 ЮЗ 3 18 км мгла {туман} 8/3 570 м
[Cu med, cong Ac cuf Ci fib]
+32.0 +24.0 63 +44 +50 опасность
перегрева
1007.3 1005.6
09 16.09 Ю 3 12 км мгла {туман} 10/3 570 м
[Cu med, cong Ac As Cs]
+30.6 +24.8 71 +43 +44 опасность
перегрева
1007.1 1005.4
12 16.09 ЮЗ 2 10 км мгла {туман} 6/1 570 м
[Cu med, cong Cs]
+28.5 +25.0 81 +41 +41 опасность
перегрева
1008.2 1006.5 +33.7
15 16.09 ЮЗ 1 12 км {туман} 4/1 570 м
[Cu med, cong Ci fib]
+27.7 +24.9 85 +40 +40 очень
душно
1009.4 1007.7
18 16.09 З 1 15 км 8/1 570 м
[Cu med, cong Ac und Ci fib]
+27.1 +23.8 82 +37 +37 очень
душно
1007.6 1005.9
21 16.09 СЗ 1 15 км 9/3 570 м
[Cu med, cong Ac und Ci fib]
+25.8 +23.1 85 +34 +34 очень
душно
1007.8 1006.1
00 17.09 Ю 1 15 км мгла {туман} 9/3 570 м
[Cu med, cong Ac As]
+26.2 +23.9 87 +36 +38 очень
душно
1010.0 1008.3 +25.3 0.2
03 17.09 З 3 25 км мгла {туман} 8/3 570 м
[Cu med, cong Ac cuf Cs]
+32.1 +22.6 57 +42 +49 опасность
перегрева
1009.4 1007.7
06 17.09 Ю 3 20 км гроза без осадков {туман} 10/3 500 м
[Cb cap Ac As]
+29.0 +23.5 72 +39 +42 очень
душно
1008.3 1006.6
09 17.09 Ю 2 15 км мгла {гроза} 10/3 570 м
[Cu med, cong Ac As]
+28.4 +23.3 74 +38 +39 очень
душно
1007.9 1006.2 0.0
12 17.09 З 2 15 км {гроза, ливн. осадки} 10/3 570 м
[Cu med, cong Ac cuf Cs]
+27.8 +24.2 81 +39 +39 очень
душно
1009.8 1008.1 +32.4 0.0
15 17.09 З 2 15 км 10/3 570 м
[Cu med, cong Ac cuf Cs]
+27.0 +24.1 84 +37 +37 очень
душно
1010.9 1009.2
18 17.09 З 2 15 км слаб. ливневой дождь {гроза} 10/3 570 м
[Cu med, cong Ac As]
+26.6 +23.8 85 +37 +37 очень
душно
1009.4 1007.7 0.0
21 17.09 Ю 1 15 км {ливн. осадки} 10/4 570 м
[Cu med, cong Ac As]
+25.1 +23.6 91 +34 +34 очень
душно
1009.9 1008.2 1
00 18.09 ЮВ 1 10 км слаб. ливневой дождь 10/4 570 м
[Cu med, cong Ac As]
+26.0 +24.5 91 +36 +37 очень
душно
1012.5 1010.8 +25.0 2
03 18.09 ЮВ 2 20 км мгла 9/3 570 м
[Cu med, cong Ac und Ci fib]
+28.7 +24.2 77 +40 +48 очень
душно
1011.5 1009.8 0.4
06 18.09 В 3 20 км мгла {туман} 9/3 570 м
[Cu med, cong Ac und Ci fib]
+30.8 +23.9 67 +42 +48 опасность
перегрева
1009.5 1007.8 0.4
09 18.09 Ю 2 20 км {гроза, ливн. осадки} 9/3 570 м
[Cu med, cong Ac und Cs]
+29.0 +24.6 77 +41 +42 опасность
перегрева
1009.8 1008.1 13
12 18.09 ЮЗ 2 20 км в посл. час гроза {ливн. осадки} 9/4 500 м
[Cb cap Ac cuf Cs]
+27.2 +24.7 86 +39 +39 очень
душно
1011.5 1009.8 +31.0 13
15 18.09 З 3 20 км 5/1 570 м
[Cu med, cong Ci fib]
+26.5 +24.6 89 +37 +37 очень
душно
1012.5 1010.8
18 18.09 З 2 20 км 8/1 570 м
[Cu med, cong Ac und Cs]
+25.3 +23.5 90 +34 +34 очень
душно
1011.1 1009.4
21 18.09 З 2 20 км 9/1 570 м
[Cu med, cong Cs]
+25.0 +23.5 91 +34 +34 очень
душно
1011.2 1009.5

 

Местоположение метеостанции Пуэрто-Принцеса (Филиппины): широта 9.75 долгота 118.73 высота над уровнем моря 15 м.

В архиве по умолчанию представлена погода в Пуэрто-Принцесе за последнюю неделю. Архивные данные за месяц целиком и за предыдущие месяцы, начиная с января 2011 года, Вы можете получить, выбрав интересующий диапазон дат из раскрывающегося списка и нажав кнопку "Ввод!".


*Определитесь, кто Вы:
робот инопланетянин человек

Внимание! Время в таблицах - всемирное. Для получения местного времени необходимо прибавить поправку, которая равна 8 ч.

Смотрите также архив погоды в соседних городах и на ближайших метеорологических станциях:

Погода на Куйо (Филиппины) (280 км)
Погода в Короне (Филиппины) (297 км)
Погода в Сан-Хосе (Филиппины) (383 км)
Погода в Сандакане (Малайзия) (435 км)
Погода на Наньша Дао (Хайнань, Китай) (484 км)
Погода в Рохасе (Филиппины) (484 км)
Погода в Замбоанге (Филиппины) (485 км)
Погода в Калапане (Филиппины) (488 км)
Погода в Ромблоне (Филиппины) (497 км)
Погода в Думагете (Филиппины) (504 км)

Пояснения к столбцам:

Ветер - указаны скорость ветра в м/с - средняя за 10 мин, порывы в срок и между сроками (в фигурных скобках) и направление, откуда дует ветер: С - северный, СВ - северо-восточный, В - восточный, ЮВ - юго-восточный, Ю - южный, ЮЗ - юго-западный, З - западный, СЗ - северо-западный.
Видимость - горизонтальная дальность видимости в метрах или километрах. При видимости от 1 до 10 км при отсутствии осадков обычно наблюдается дымка, при ухудшении видимости до 1 км и менее - туман. В сухую погоду видимость может ухудшаться дымом, пылью или мглою.
Явления - указаны атмосферные явления, наблюдавшиеся в срок или в последний час перед сроком; фигурными скобками обозначены явления, наблюдавшиеся между сроками (за 1-3 часа до срока); квадратными скобками обозначены град или гололедные отложения с указанием их диаметра в мм.
Облачность - указаны через наклонную черту общая и нижняя облачность в баллах и высота нижней границы облаков в метрах; квадратными скобками обозначены формы облаков: Ci - перистые, Cs - перисто-слоистые, Cc - перисто-кучевые, Ac - высококучевые, As - высокослоистые, Sc - слоисто-кучевые, Ns - слоисто-дождевые, Cu - кучевые, Cb - кучево-дождевые. Подробнее классификацию облаков см. в Атласе облаков (PDF).
T - Температура воздуха - температура, измеренная на высоте 2 м над землей.
Td - Температура точки росы - температура, при понижении до которой содержащийся в воздухе водяной пар достигнет насыщения.
f - Относительная влажность воздуха - влажноcть воздуха, измеренная на высоте 2 м над землей.
Te - Эффективная температура - температура, которую ощущает одетый по сезону человек в тени. Характеристика душности погоды. При расчете учитывается влияние влажности воздуха и скорости ветра на теплоощущения человека.
Tes - Эффективная температура на солнце - температура, которую ощущает человек, с поправкой на солнечный нагрев. Характеристика знойности погоды. Зависит от высоты солнца над горизонтом, облачности и скорости ветра. Ночью, в пасмурную погоду, а также при ветре 12 м/с и более поправка равна нулю.
P - Атмосферное давление - приведенное к уровню моря атмосферное давление.
Po - Атмосферное давление - измеренное на уровне метеостанции атмосферное давление.
Tmin - Минимальная температура - минимум температуры воздуха на высоте 2 м над землей.
Tmax - Максимальная температура - максимум температуры воздуха на высоте 2 м над землей.
R - Количество осадков - Количество выпавших осадков за период времени, мм. При наведении курсора мыши на число - период времени, за который выпало указанное количество осадков.
R24 - Количество осадков - Количество выпавших осадков за 24 часа, мм.
S - Снежный покров - Высота снежного покрова, см. При наведении курсора мыши на число - состояние снежного покрова и степень покрытия местности в баллах.